Вернуться в каталог

COSMOS 951 DEB

АктивенPO
NORAD 37236·DEBRIS·🇷🇺 Russia

Запущен Sep 13, 1977 с Plesetsk Cosmodrome

Loading…

Ближайшие Пролёты (ближайшие 24 часа)

TLE

СвежийSource: Space-Track

Эпоха: Sep 14, 2026, 12:27 UTC

1 37236U 77087D   26257.51910697  .00000517  00000-0  47481-3 0  9990
2 37236  82.9647  87.1653 0035086  48.6897 340.3503 13.80797652458488

Отслеживайте COSMOS 951 DEB в реальном времени с AllMySat

Download on the App Store